Home > Weather > Brantford > Past weeks

Flag for Canada Weather for the Past 2 Weeks in Brantford, Ontario, Canada

Now
28 °F

Snow flurries. Mostly cloudy.


Feels Like: 18 °F
Forecast: 16 / 29 °F
Wind: 12 mph from Southwest

Location: Hamilton Airport

Current Time: Feb 9, 2016 at 10:00:10 PM

Latest Report: Feb 9, 2016 at 9:00 PM


Visibility: 3 mi

Pressure: 29.52 "Hg

Humidity: 93%

Dew point: 27 °F

Location of BrantfordLocation

Historic Weather in Brantford — Graph

°F

Brantford Temperature Yesterday

Maximum temperature yesterday: 43 °F (at 12:00 PM)
Minimum temperature yesterday: 32 °F (at 7:00 AM)
Average temperature yesterday: 36 °F

High & Low Weather Summary for the Past Weeks

 TemperatureHumidityPressure
High55 °F (Feb 3, 1:00 PM)100% (Jan 28, 8:00 PM)30.35 "Hg (Jan 28, 8:00 PM)
Low14 °F (Jan 30, 12:00 AM)45% (Feb 6, 2:00 PM)29.49 "Hg (Feb 9, 2:00 PM)
Average34 °F80%29.88 "Hg
* Reported Jan 25 8:00 PM — Feb 9 8:00 PM, Brantford, Weather by CustomWeather, © 2016

Note: Actual official high and low records may vary slightly from our data, if they occured in-between our weather recording intervals... More about our weather records

Advertising

Brantford Weather History for the Previous 24 Hours

 ConditionsComfort  
Time TempWeatherWind HumidityBarometerVisibility
8:00 PM
Tue, Feb 9
28 °FSnow flurries. Mostly cloudy.15 mph86%29.54 "Hg12 mi
7:50 PM28 °FSnow flurries. Overcast.13 mph86%29.54 "Hg15 mi
7:00 PM28 °FMostly cloudy.14 mph86%29.54 "Hg15 mi
6:00 PM30 °FMostly cloudy.14 mph80%29.53 "Hg15 mi
5:00 PM30 °FMore clouds than sun.13 mph80%29.52 "Hg15 mi
4:00 PM32 °FPartly sunny.13 mph87%29.49 "Hg15 mi
3:00 PM32 °FLight snow. Mostly cloudy.10 mph93%29.49 "Hg2 mi
2:00 PM34 °FMostly cloudy.14 mph87%29.49 "Hg15 mi
1:00 PM34 °FMore clouds than sun.12 mph93%29.50 "Hg15 mi
12:47 PM34 °FMostly cloudy.14 mph87%29.51 "Hg15 mi
12:00 PM34 °FLight snow. Mostly cloudy.14 mph93%29.52 "Hg12 mi
11:56 AM34 °FLight snow. Mostly cloudy.16 mph87%29.52 "Hg12 mi
10:00 AM34 °FBroken clouds.6 mph87%29.53 "Hg8 mi
9:00 AM32 °FMostly cloudy.5 mph93%29.53 "Hg8 mi
8:00 AM32 °FLight snow. Cloudy.7 mph93%29.52 "Hg6 mi
7:00 AM32 °FLight snow. Low clouds.7 mph100%29.51 "Hg6 mi
6:00 AM32 °FLight snow. Passing clouds.7 mph100%29.51 "Hg6 mi
5:00 AM32 °FIce fog.6 mph100%29.50 "Hg4 mi
4:00 AM32 °FIce fog.8 mph100%29.49 "Hg1 mi
3:00 AM32 °FFog.3 mph100%29.51 "Hg1 mi
2:00 AM32 °FLight snow. Low clouds.3 mph100%29.51 "Hg2 mi
1:00 AM32 °FLight snow. Low clouds.5 mph100%29.52 "Hg2 mi
12:00 AM32 °FLight snow. Low clouds.6 mph100%29.54 "Hg2 mi
11:00 PM
Mon, Feb 8
34 °FLight snow. Low clouds.9 mph93%29.54 "Hg2 mi
10:00 PM34 °FLight rain. Fog.9 mph100%29.55 "Hg2 mi
Weather by CustomWeather, © 2016

See weather overviewHow to use our weather pages